Victoria, British Columbia

5:23 AM PDT on August 22, 2017 (GMT -0700)
Victoria International

Weather History for CYYJ - November, 2012

Change the Weather History Date:

Saturday, November 10, 2012

  Actual Average Record
Temperature  
Mean Temperature 36 °F -  
Max Temperature 43 °F 47 °F 58 °F (2016)
Min Temperature 28 °F 35 °F 28 °F (2012)
Degree Days  
Heating Degree Days 30    
Moisture  
Dew Point 27 °F    
Average Humidity 78    
Maximum Humidity 100    
Minimum Humidity 39    
Precipitation  
Precipitation 0.00 in 0.19 in - ()
Sea Level Pressure  
Sea Level Pressure 30.13 in    
Wind  
Wind Speed 4 mph ()    
Max Wind Speed 8 mph    
Max Gust Speed -    
Averages and records for this station are not official NWS values.
T = Trace of Precipitation, MM = Missing Value Source: Averaged Metar Reports

Daily Weather History Graph

Daily Weather History Graph

Search for Another Location

Airport or City:

Trip Planner

Search our weather history database for the weather conditions in past years. The results will help you decide how hot, cold, wet, or windy it might be!

Date:

Astronomy

Nov. 10, 2012 Rise Set
Actual Time 7:15 AM PST 4:39 PM PST
Civil Twilight 6:41 AM PST 5:13 PM PST
Nautical Twilight 6:03 AM PST 5:51 PM PST
Astronomical Twilight 5:26 AM PST 6:28 PM PST
Moon 3:10 AM PST (11/10) 2:43 PM PST (11/10)
Length of Visible Light 10h 32m
Length of Day
9h 24m
Waning Crescent, 13% of the Moon is Illuminated
Nov 10
Waning Crescent
Nov 13
New
Nov 20
First Quarter
Nov 28
Full
Dec 6
Last Quarter

Hourly Weather History & Observations

Time (PST) Temp. Windchill Dew Point Humidity Pressure Visibility Wind Dir Wind Speed Gust Speed Precip Events Conditions
12:00 AM 32.0 °F 28.7 °F 30.2 °F 93% 30.01 in 30.0 mi SW 3.5 mph - N/A   Mostly Cloudy
1:00 AM 32.0 °F 26.4 °F 30.2 °F 93% 30.02 in 30.0 mi WSW 5.8 mph - N/A   Scattered Clouds
2:00 AM 32.0 °F 27.5 °F 30.2 °F 93% 30.03 in 30.0 mi SW 4.6 mph - N/A   Mostly Cloudy
3:00 AM 30.2 °F - 30.2 °F 100% 30.04 in 30.0 mi West 2.3 mph - N/A   Partly Cloudy
4:00 AM 31 °F - 29 °F 91% 30.05 in 28 mi WSW 5.8 mph - -   Scattered Clouds
4:00 AM 30.2 °F 24.3 °F 30.2 °F 100% 30.05 in 30.0 mi WSW 5.8 mph - N/A   Partly Cloudy
5:00 AM 30.2 °F 25.4 °F 28.4 °F 93% 30.06 in 30.0 mi WSW 4.6 mph - N/A   Scattered Clouds
6:00 AM 28.4 °F 23.3 °F 28.4 °F 100% 30.08 in 30.0 mi SW 4.6 mph - N/A   Scattered Clouds
7:00 AM 30.2 °F 26.7 °F 28.4 °F 93% 30.09 in 30.0 mi SSW 3.5 mph - N/A   Mostly Cloudy
8:00 AM 30.2 °F 25.4 °F 30.2 °F 100% 30.10 in 30.0 mi WSW 4.6 mph - N/A   Partly Cloudy
9:00 AM 35.6 °F 32.8 °F 33.8 °F 93% 30.12 in 30.0 mi West 3.5 mph - N/A   Scattered Clouds
10:00 AM 41 °F - 32 °F 60% 30.14 in 28 mi Calm Calm - -   Scattered Clouds
10:00 AM 41.0 °F - 32.0 °F 70% 30.14 in 30.0 mi Calm Calm - N/A   Partly Cloudy
11:00 AM 41.0 °F 35.8 °F 23.0 °F 49% 30.15 in 30.0 mi ENE 8.1 mph - N/A   Partly Cloudy
12:00 PM 42.8 °F 41.1 °F 21.2 °F 42% 30.16 in 30.0 mi SE 3.5 mph - N/A   Partly Cloudy
1:00 PM 42.8 °F 39.3 °F 19.4 °F 39% 30.17 in 30.0 mi East 5.8 mph - N/A   Partly Cloudy
2:00 PM 42.8 °F 39.3 °F 21.2 °F 42% 30.16 in 30.0 mi East 5.8 mph - N/A   Partly Cloudy
3:00 PM 42.8 °F 39.3 °F 21.2 °F 42% 30.16 in 30.0 mi East 5.8 mph - N/A   Scattered Clouds
4:00 PM 39 °F - 25 °F 44% 30.18 in 28 mi South 2.3 mph - -   Clear
4:00 PM 39.2 °F - 24.8 °F 56% 30.18 in 30.0 mi South 2.3 mph - N/A   Scattered Clouds
4:35 PM 35.6 °F - - N/A% - 30.0 mi SSE 2.3 mph - N/A   Partly Cloudy
5:00 PM 32.0 °F 28.7 °F 26.6 °F 80% 30.18 in 30.0 mi WSW 3.5 mph - N/A   Partly Cloudy
6:00 PM 30.2 °F - 24.8 °F 80% 30.19 in 30.0 mi West 2.3 mph - N/A   Partly Cloudy
7:00 PM 30.2 °F - 26.6 °F 86% 30.20 in 30.0 mi Calm Calm - N/A   Partly Cloudy
8:00 PM 30.2 °F - 26.6 °F 86% 30.20 in 30.0 mi WSW 2.3 mph - N/A   Partly Cloudy
9:00 PM 30.2 °F 25.4 °F 26.6 °F 86% 30.21 in 30.0 mi West 4.6 mph - N/A   Partly Cloudy
10:00 PM 30 °F - 28 °F 86% 30.21 in 28 mi SW 4.6 mph - -   Clear
10:00 PM 30.2 °F 25.4 °F 28.4 °F 93% 30.21 in 30.0 mi SW 4.6 mph - N/A   Scattered Clouds
11:00 PM 30.2 °F 24.3 °F 28.4 °F 93% 30.22 in 30.0 mi WSW 5.8 mph - N/A   Overcast